TimeEST,TemperatureF,Dew PointF,Humidity,Sea Level PressureIn,VisibilityMPH,Wind Direction,Wind SpeedMPH,Gust SpeedMPH,PrecipitationIn,Events,Conditions,WindDirDegrees,DateUTC
12:55 AM,61.0,49.3,65,30.01,10.0,NNW,3.5,-,N/A,,Overcast,330,2012-11-08 05:55:00
1:55 AM,60.4,49.6,68,30.01,10.0,NNW,3.5,-,N/A,,Overcast,330,2012-11-08 06:55:00
2:55 AM,60.1,50.7,71,30.01,10.0,NW,3.5,-,N/A,,Mostly Cloudy,310,2012-11-08 07:55:00
3:55 AM,56.7,53.6,89,30.01,10.0,Calm,Calm,-,N/A,,Clear,0,2012-11-08 08:55:00
4:55 AM,55.4,52.9,91,30.03,10.0,Calm,Calm,-,N/A,,Partly Cloudy,0,2012-11-08 09:55:00
5:55 AM,54.3,52.5,94,30.04,10.0,Calm,Calm,-,N/A,,Clear,0,2012-11-08 10:55:00
6:55 AM,55.2,51.6,88,30.07,10.0,North,4.6,-,N/A,,Clear,360,2012-11-08 11:55:00
7:55 AM,59.9,50.4,71,30.09,10.0,North,4.6,-,N/A,,Mostly Cloudy,360,2012-11-08 12:55:00
8:55 AM,62.2,48.7,61,30.11,10.0,North,13.8,-,N/A,,Scattered Clouds,350,2012-11-08 13:55:00
9:55 AM,64.9,44.6,48,30.12,10.0,North,15.0,-,N/A,,Partly Cloudy,360,2012-11-08 14:55:00
10:55 AM,66.9,41.5,40,30.13,10.0,North,12.7,-,N/A,,Clear,350,2012-11-08 15:55:00
11:55 AM,67.8,37.9,33,30.11,10.0,North,15.0,-,N/A,,Clear,350,2012-11-08 16:55:00
12:55 PM,68.0,39.7,36,30.09,10.0,NNW,15.0,26.5,N/A,,Clear,340,2012-11-08 17:55:00
1:55 PM,68.2,39.6,35,30.07,10.0,NW,17.3,24.2,N/A,,Clear,320,2012-11-08 18:55:00
2:55 PM,68.7,40.1,35,30.06,10.0,NW,13.8,23.0,N/A,,Clear,320,2012-11-08 19:55:00
3:55 PM,68.0,38.5,34,30.06,10.0,NNW,15.0,23.0,N/A,,Clear,340,2012-11-08 20:55:00
4:55 PM,66.6,39.2,37,30.07,10.0,NNW,13.8,-,N/A,,Clear,340,2012-11-08 21:55:00
5:45 PM,64.4,37.4,37,30.08,10.0,North,10.4,-,N/A,,Light Drizzle,360,2012-11-08 22:45:00
5:55 PM,63.9,38.7,39,30.09,10.0,North,10.4,-,0.00,,Light Drizzle,10,2012-11-08 22:55:00
6:55 PM,61.2,40.5,47,30.10,10.0,North,5.8,-,0.00,,Clear,350,2012-11-08 23:55:00
7:55 PM,59.0,42.4,54,30.12,10.0,NNW,5.8,-,N/A,,Clear,330,2012-11-09 00:55:00
8:55 PM,57.6,45.3,64,30.13,10.0,NW,6.9,-,N/A,,Clear,320,2012-11-09 01:55:00
9:55 PM,56.7,46.4,69,30.13,10.0,NNW,8.1,-,N/A,,Clear,330,2012-11-09 02:55:00
10:55 PM,58.3,47.1,66,30.14,10.0,NNW,6.9,-,N/A,,Partly Cloudy,340,2012-11-09 03:55:00
11:55 PM,60.3,48.2,64,30.13,10.0,NNW,9.2,-,N/A,,Overcast,330,2012-11-09 04:55:00